NIEUW!!! Volg onze weer- en natuurfoto's op Instagram @ weerstationmaaseik.be

WS Maaseik 1 Meer informatie WS Maaseik 1


WS Maaseik 2 Meer informatie WS Maaseik 2


Regen radar Meer informatie rain snow radar


Bezoek onze andere website:

Vorige versie
weerstation Maaseik


Bezoek ook eens deze sites:

Weerstation Geleen



Het weer levert geen direct gevaar op.    Er zijn geen waarschuwingen afgegeven.

15 daagse weersverwachting Reggio nell'Emilia (IT)

  • Overzicht
  • Per uur
  • 15 dagen
  • Extra
  • Vergelijk
  • Kaarten
  • Dagkaart
  • Meer »
  • Info
  • Statistieken
  • Directe link
    Temp 6h Neerslag Wind  
 07:04     19:17    Daglengte: 12:13 Vandaag
14:00
25°
 
2
20:00
22°
 
1
 07:05     19:16    Daglengte: 12:11 Morgen
02:00
19°
2.1 mm
1
08:00
19°
3.0 mm
1
14:00
23°
1.2 mm
2
20:00
20°
7.0 mm
1
warningclass
 07:07     19:14    Daglengte: 12:07 Dinsdag 22 Sep
02:00
18°
 
1
08:00
18°
 
1
14:00
23°
4.5 mm
2
warningclass
20:00
20°
4.7 mm
1
 07:08     19:12    Daglengte: 12:04 Woensdag 23 Sep
02:00
18°
8.2 mm
1
08:00
17°
 
1
Locatie info
Region: Emilia-Romagna
Latitude: 44.6983°N
Longitude: 10.6312°E
69 masl
Temp/Neerslag /Baro Onweer/Dauwpunt
    Temp Baro 1h Neerslag Dauwpunt Wind UV Bewolking  
 07:04     19:17    Daglengte: 12:13 Vandaag
11:00
21°
1016.1 hPa
47%
13.6°
1
Windvlaag: 0.2 m/s
67%
12:00
23°
1015.8 hPa
39%
13.0°
2
Windvlaag: 0.6 m/s
46%
13:00
24°
1015.3 hPa
69%
12.3°
2
Windvlaag: 0.3 m/s
47%
14:00
25°
1015.0 hPa
38%
12.1°
2
Windvlaag: 0.9 m/s
63%
15:00
25°
1014.3 hPa
37%
12.5°
2
Windvlaag: 0.9 m/s
72%
16:00
25°
1013.8 hPa
13%
12.7°
2
Windvlaag: 0.8 m/s
29%
17:00
25°
1013.7 hPa
15%
13.8°
2
Windvlaag: 0.5 m/s
52%
18:00
24°
1013.7 hPa
27%
15.5°
2
Windvlaag: 0.5 m/s
58%
19:00
23°
1013.8 hPa
72%
15.6°
2
Windvlaag: 0.1 m/s
58%
20:00
22°
1014.1 hPa
71%
16.0°
1
Windvlaag: 0.1 m/s
66%
21:00
22°
1014.6 hPa
73%
16.2°
1
Windvlaag: 0.1 m/s
51%
22:00
21°
1014.8 hPa
76%
16.2°
1
Windvlaag: 0.1 m/s
47% warningclass
23:00
20°
1015.0 hPa 0.7 mm
77%
16.4°
1
Windvlaag: 0.1 m/s
48% warningclass
 07:05     19:16    Daglengte: 12:11 Morgen
00:00
20°
1015.2 hPa 0.7 mm
77%
16.8°
1
Windvlaag: -0.4 m/s
64% warningclass
01:00
19°
1015.1 hPa 0.3 mm
80%
16.9°
1
Windvlaag: 0.1 m/s
43%
02:00
19°
1015.1 hPa 0.4 mm
80%
17.1°
1
Windvlaag: 0.5 m/s
57%
03:00
18°
1014.9 hPa 0.5 mm
78%
17.2°
1
Windvlaag: 0.5 m/s
66%
04:00
18°
1014.7 hPa 0.7 mm
80%
17.2°
1
Windvlaag: 0.4 m/s
65% warningclass
05:00
18°
1014.7 hPa 0.6 mm
80%
17.4°
1
Windvlaag: -0.1 m/s
77% warningclass
06:00
18°
1014.7 hPa 0.4 mm
77%
17.3°
1
Windvlaag: -0 m/s
67% warningclass
07:00
18°
1014.7 hPa 0.4 mm
75%
17.5°
1
Windvlaag: 0.5 m/s
76%
08:00
19°
1015.1 hPa 0.2 mm
74%
17.4°
1
Windvlaag: 0.3 m/s
62%
09:00
19°
1015.5 hPa 0.2 mm
72%
17.4°
1
Windvlaag: 0.1 m/s
56%
10:00
20°
1015.8 hPa 0.2 mm
72%
17.1°
1
Windvlaag: -0.9 m/s
50%
11:00
21°
1016.0 hPa 0.3 mm
72%
16.4°
1
Windvlaag: -1 m/s
67%
12:00
21°
1016.0 hPa
32%
16.4°
2
Windvlaag: -1.3 m/s
58%
13:00
23°
1015.8 hPa 0.3 mm
34%
16.7°
2
Windvlaag: -1.4 m/s
56% warningclass
14:00
23°
1015.4 hPa 0.3 mm
70%
16.6°
2
Windvlaag: -1.5 m/s
60%
15:00
23°
1015.1 hPa
77%
17.0°
2
Windvlaag: -1.3 m/s
66%
16:00
23°
1014.8 hPa 0.5 mm
73%
17.0°
1
Windvlaag: -1 m/s
78% warningclass
17:00
23°
1014.5 hPa
77%
17.5°
1
Windvlaag: -0.6 m/s
83%
18:00
22°
1014.6 hPa 1.9 mm
78%
18.2°
2
Windvlaag: -0.6 m/s
77% warningclass
19:00
21°
1014.7 hPa 2.6 mm
74%
18.5°
2
Windvlaag: -0.3 m/s
83%
20:00
20°
1015.1 hPa 1.9 mm
74%
18.9°
1
Windvlaag: 0.1 m/s
83% warningclass
21:00
20°
1015.4 hPa
75%
18.6°
1
Windvlaag: 0.2 m/s
76%
22:00
19°
1015.4 hPa
76%
18.3°
1
Windvlaag: 0.7 m/s
74%
23:00
19°
1015.6 hPa
67%
18.1°
1
Windvlaag: 0.7 m/s
64%
 07:07     19:14    Daglengte: 12:07 Dinsdag 22 Sep
00:00
19°
1015.5 hPa
65%
18.0°
1
Windvlaag: 0.4 m/s
70%
01:00
18°
1015.3 hPa
33%
17.9°
1
Windvlaag: 0.4 m/s
61%
02:00
18°
1015.0 hPa
27%
17.8°
1
Windvlaag: 0.4 m/s
53%
03:00
18°
1014.8 hPa
26%
17.7°
1
Windvlaag: 0.3 m/s
56%
04:00
18°
1014.5 hPa
59%
17.5°
1
Windvlaag: 0.2 m/s
56%
05:00
18°
1014.6 hPa
72%
17.2°
1
Windvlaag: 0.4 m/s
72%
06:00
18°
1014.5 hPa
85%
17.1°
1
Windvlaag: 0.7 m/s
73%
07:00
18°
1014.7 hPa
27%
17.1°
1
Windvlaag: 0.3 m/s
73%
08:00
18°
1014.9 hPa
25%
17.1°
1
Windvlaag: 0.3 m/s
68%
09:00
18°
1015.0 hPa
68%
17.2°
1
Windvlaag: 0.4 m/s
71%
10:00
19°
1015.1 hPa
33%
17.1°
1
Windvlaag: -0.6 m/s
77%
11:00
20°
1015.1 hPa
71%
17.1°
1
Windvlaag: -1.2 m/s
83%
12:00
21°
1014.7 hPa
27%
17.3°
1
Windvlaag: -1.6 m/s
90%
13:00
22°
1014.2 hPa 2.0 mm
29%
17.3°
2
Windvlaag: -1.4 m/s
72% warningclass
14:00
23°
1013.6 hPa 2.4 mm
28%
16.7°
2
Windvlaag: -1.3 m/s
87% warningclass
15:00
23°
1013.0 hPa 2.1 mm
38%
16.8°
1
Windvlaag: -1 m/s
91% warningclass
16:00
22°
1012.6 hPa 2.7 mm
43%
17.1°
1
Windvlaag: -0.7 m/s
92% warningclass
17:00
22°
1012.2 hPa
39%
16.7°
2
Windvlaag: -0.7 m/s
88%
18:00
22°
1012.0 hPa
91%
16.6°
2
Windvlaag: -0.6 m/s
79%
19:00
21°
1011.8 hPa
43%
17.1°
1
Windvlaag: -0.5 m/s
93%
20:00
20°
1012.1 hPa
24%
17.4°
1
Windvlaag: -0.8 m/s
82%
21:00
19°
1012.1 hPa
21%
17.2°
1
Windvlaag: -1.1 m/s
82%
22:00
19°
1012.0 hPa 4.2 mm
22%
17.1°
1
Windvlaag: -2.4 m/s
79%
23:00
19°
1011.9 hPa
24%
17.0°
1
Windvlaag: -1.4 m/s
80%
 07:08     19:12    Daglengte: 12:04 Woensdag 23 Sep
00:00
18°
1011.9 hPa 4.0 mm
21%
16.9°
1
Windvlaag: -1.7 m/s
87%
01:00
18°
1011.7 hPa
21%
16.8°
1
Windvlaag: -1.4 m/s
85%
02:00
18°
1011.6 hPa
21%
17.0°
1
Windvlaag: -1.1 m/s
94%
03:00
17°
1011.2 hPa
21%
16.5°
1
Windvlaag: 3.3 m/s
84%
04:00
17°
1010.9 hPa
21%
16.5°
1
Windvlaag: 2.9 m/s
74%
05:00
17°
1010.7 hPa
26%
16.3°
1
Windvlaag: 4.7 m/s
87%
06:00
17°
1010.6 hPa
22%
16.3°
1
Windvlaag: 3.8 m/s
92%
07:00
17°
1010.5 hPa
24%
16.4°
1
Windvlaag: 4.9 m/s
92%
08:00
17°
1010.5 hPa
21%
16.4°
1
Windvlaag: 0.8 m/s
84%
09:00
18°
1010.4 hPa 20.7 mm
100%
16.5°
1
Windvlaag: 3.8 m/s
85%
10:00
19°
1010.2 hPa 20.8 mm
100%
16.6°
1
Windvlaag: 2.4 m/s
88%
Temp/Neerslag /Baro Onweer/Dauwpunt
    Temp Baro Neerslag Dauwpunt Wind Bewolking  
 07:04     19:17    Daglengte: 12:13 Vandaag
11:00
21°
1016.1 hPa   13.6°
1
67%
14:00
25°
1015.0 hPa   12.1°
2
63%
17:00
25°
1013.7 hPa   13.8°
2
52%
20:00
22°
1014.1 hPa   16.0°
1
66%
23:00
20°
1015.0 hPa 0.7 mm 16.4°
1
48% warningclass
 07:05     19:16    Daglengte: 12:11 Morgen
02:00
19°
1015.1 hPa 1.4 mm 17.1°
1
57%
05:00
18°
1014.7 hPa 1.9 mm 17.4°
1
77% warningclass
08:00
19°
1015.1 hPa 1.1 mm 17.4°
1
62%
11:00
21°
1016.0 hPa 0.7 mm 16.4°
1
67%
14:00
23°
1015.4 hPa 0.5 mm 16.6°
2
60%
17:00
23°
1014.5 hPa 0.5 mm 17.5°
1
83% warningclass
20:00
20°
1015.1 hPa 6.5 mm 18.9°
1
83% warningclass
23:00
19°
1015.6 hPa   18.1°
1
64%
 07:07     19:14    Daglengte: 12:07 Dinsdag 22 Sep
02:00
18°
1015.0 hPa   17.8°
1
53%
05:00
18°
1014.6 hPa   17.2°
1
72%
08:00
18°
1014.9 hPa   17.1°
1
68%
11:00
20°
1015.1 hPa   17.1°
1
83%
14:00
23°
1013.6 hPa 4.5 mm 16.7°
2
87% warningclass
17:00
22°
1012.2 hPa 4.7 mm 16.7°
2
88%
20:00
20°
1012.1 hPa   17.4°
1
82%
23:00
19°
1011.9 hPa 4.2 mm 17.0°
1
80%
 07:08     19:12    Daglengte: 12:04 Woensdag 23 Sep
02:00
18°
1011.6 hPa 4.0 mm 17.0°
1
94%
05:00
17°
1010.7 hPa   16.3°
1
87%
08:00
17°
1010.5 hPa   16.4°
1
84%
11:00
20°
1010.2 hPa 62.3 mm 16.6°
1
95%
14:00
23°
1009.6 hPa 71.6 mm 16.0°
2
97%
17:00
21°
1009.1 hPa 18.9 mm 14.7°
2
84%
20:00
20°
1008.8 hPa 18.9 mm 14.0°
2
81%
23:00
18°
1008.8 hPa 18.9 mm 14.0°
1
82%
 07:09     19:10    Daglengte: 12:01 Donderdag 24 Sep
02:00
16°
1008.7 hPa 18.9 mm 13.8°
1
83%
05:00
17°
1008.5 hPa 18.9 mm 14.4°
1
58%
08:00
17°
1008.4 hPa 18.9 mm 15.0°
0
34%
11:00
21°
1008.1 hPa 18.9 mm 16.0°
1
43%
14:00
24°
1007.6 hPa 19.0 mm 16.4°
2
52%
17:00
23°
1006.5 hPa 19.0 mm 16.4°
2
46%
20:00
21°
1005.4 hPa 19.0 mm 16.1°
2
39%
23:00
20°
1004.7 hPa 19.1 mm 15.8°
2
63%
 07:10     19:08    Daglengte: 11:58 Vrijdag 25 Sep
02:00
19°
1003.7 hPa 19.4 mm 15.4°
2
87%
05:00
18°
1002.3 hPa 19.4 mm 14.8°
2
45%
08:00
17°
1000.9 hPa 19.4 mm 14.1°
2
2%
11:00
21°
999.6 hPa 19.4 mm 12.5°
4
13%
14:00
24°
998.4 hPa 19.4 mm 7.6°
6
24%
17:00
21°
998.1 hPa 19.4 mm 9.0°
5
57%
20:00
16°
998.0 hPa 19.4 mm 8.7°
5
90%
23:00
14°
998.0 hPa 19.4 mm 8.1°
5
85%
 07:11     19:06    Daglengte: 11:55 Zaterdag 26 Sep
02:00
11°
997.9 hPa 19.4 mm 7.5°
6
80%
05:00
12°
998.3 hPa 19.4 mm 6.7°
4
86%
08:00
12°
998.7 hPa 19.4 mm 6.1°
3
92%
11:00
14°
999.6 hPa 19.4 mm 5.5°
3
92%
14:00
17°
1000.4 hPa 19.4 mm 3.9°
3
92%
17:00
16°
1001.7 hPa 19.4 mm 3.3°
3
88%
20:00
15°
1003.1 hPa 19.4 mm 2.6°
3
84%
23:00
14°
1004.6 hPa 19.4 mm 1.1°
3
60%
 07:13     19:04    Daglengte: 11:51 Zondag 27 Sep
02:00
12°
1006.1 hPa 19.4 mm -0.4°
4
36%
05:00
12°
1007.2 hPa 19.4 mm 0.4°
3
59%
08:00
12°
1008.4 hPa 38.9 mm 0.6°
3
81%
14:00
20°
1009.9 hPa 38.9 mm 2.2°
3
63%
20:00
16°
1011.6 hPa 38.9 mm 3.0°
1
0%
 07:14     19:02    Daglengte: 11:48 Maandag 28 Sep
02:00
11°
1014.3 hPa 39.0 mm 3.7°
2
3%
08:00
Voelt als: 8.4°
1015.3 hPa 39.0 mm 4.4°
1
0%
14:00
22°
1015.8 hPa 39.0 mm 3.0°
2
4%
20:00
17°
1016.2 hPa 39.0 mm 6.5°
1
2%
 07:15     19:00    Daglengte: 11:45 Dinsdag 29 Sep
02:00
13°
1017.3 hPa 39.0 mm 7.9°
3
0%
08:00
11°
1017.9 hPa 39.0 mm 8.8°
1
19%
14:00
21°
1014.2 hPa 39.0 mm 4.0°
2
0%
20:00
16°
1015.3 hPa 39.0 mm 3.6°
1
0%
 07:16     18:59    Daglengte: 11:43 Woensdag 30 Sep
02:00
13°
1016.9 hPa 39.0 mm 5.1°
1
0%
08:00
12°
1016.1 hPa 0.3 mm 8.0°
0
26%
14:00
21°
1015.6 hPa 0.4 mm 9.0°
0
26%
20:00
15°
1015.0 hPa 0.3 mm 9.0°
1
27%
 07:17     18:57    Daglengte: 11:40 Donderdag 01 Okt
02:00
12°
1015.2 hPa 0.3 mm 8.7°
1
24%
08:00
12°
1014.9 hPa 0.9 mm 8.9°
1
30%
14:00
21°
1014.4 hPa 0.5 mm 10.2°
1
35%
20:00
15°
1014.0 hPa 0.6 mm 9.9°
1
36%
 07:19     18:55    Daglengte: 11:36 Vrijdag 02 Okt
02:00
13°
1014.7 hPa 0.9 mm 9.7°
1
30%
08:00
12°
1014.9 hPa 1.3 mm 9.6°
1
34%
14:00
22°
1015.1 hPa 1.1 mm 11.7°
1
41%
20:00
16°
1015.3 hPa 1.6 mm 11.3°
1
48%
 07:20     18:53    Daglengte: 11:33 Zaterdag 03 Okt
02:00
14°
1016.1 hPa 0.4 mm 11.1°
0
44%
08:00
13°
1016.4 hPa 0.5 mm 11.0°
1
39%
14:00
22°
1016.6 hPa 2.2 mm 12.7°
1
40%
20:00
17°
1016.3 hPa 1.5 mm 11.9°
1
44%
 07:21     18:51    Daglengte: 11:30 Zondag 04 Okt
02:00
14°
1016.8 hPa 0.5 mm 11.6°
1
34%
08:00
14°
1016.1 hPa 1.0 mm 11.4°
1
35%
14:00
23°
1015.4 hPa 1.8 mm 12.9°
1
41%
20:00
18°
1014.6 hPa 2.7 mm 12.6°
1
48%
 07:22     18:49    Daglengte: 11:27 Maandag 05 Okt
02:00
15°
1014.9 hPa 3.7 mm 12.3°
1
46%
08:00
14°
1014.2 hPa 3.5 mm 12.0°
1
46%
  CAPE Lifted Index Hail Supercell Tornado SRH 3km CL BTM PRES CL TOP PRES Swiss DWD icon SMHI TS
 07:04     19:17    Daglengte: 12:13 Vandaag
11:00 0 J/kg -0.9 K 0 % 0 % 0 % 0 m²/s² 0 0 -0.36 3
12:00 0 J/kg -1.4 K 0 % 0 % 0 % 0 m²/s² 0 0 -0.95 3
13:00 0 J/kg -1.3 K 0 % 0 % 0 % 0 m²/s² 0 0 -0.94 3
14:00 78 J/kg -1.0 K 0 % 0 % 0 % 0 m²/s² 0 0 0.5 3
15:00 265 J/kg -1.8 K 0 % 0 % 0 % 0 m²/s² 0 0 0.24 3
16:00 353 J/kg -2.2 K 0 % 0 % 0 % 0 m²/s² 0 0 -0.37 3
17:00 541 J/kg -3.1 K 0 % 0 % 0 % 0 m²/s² 0 0 -1.39 3
18:00 728 J/kg -3.7 K 0 % 0 % 0 % 0 m²/s² 0 0 -2.17 3
19:00 764 J/kg -3.1 K 0 % 0 % 0 % 0 m²/s² 0 0 -1.45 80
20:00 745 J/kg -2.7 K 0 % 0 % 0 % 0 m²/s² 0 0 -1.5 80
21:00 646 J/kg -2.8 K 0 % 0 % 0 % 0 m²/s² 0 0 -1.96 80
22:00 403 J/kg -2.4 K 0 % 0 % 0 % 0 m²/s² 0 0 -0.81 95
23:00 404 J/kg -2.4 K 0 % 0 % 0 % 0 m²/s² 0 0 -0.57 95
 07:05     19:16    Daglengte: 12:11 Morgen
00:00 467 J/kg -2.8 K 0 % 0 % 0 % 0 m²/s² 0 0 -0.91 95
01:00 581 J/kg -2.6 K 0 % 0 % 0 % 0 m²/s² 0 0 -0.89 3
02:00 439 J/kg -2.4 K 0 % 0 % 0 % 0 m²/s² 0 0 -0.42 3
03:00 437 J/kg -2.6 K 0 % 0 % 0 % 0 m²/s² 0 0 -0.83 80
04:00 364 J/kg -2.4 K 0 % 0 % 0 % 0 m²/s² 0 0 -0.51 95
05:00 354 J/kg -2.6 K 0 % 0 % 0 % 0 m²/s² 0 0 -0.77 95
06:00 222 J/kg -2.3 K 0 % 0 % 0 % 0 m²/s² 0 0 -0.47 95
07:00 180 J/kg -2.2 K 0 % 0 % 0 % 0 m²/s² 0 0 -0.25 80
08:00 163 J/kg -2.3 K 0 % 0 % 0 % 0 m²/s² 0 0 -0.71 80
09:00 340 J/kg -2.6 K 0 % 0 % 0 % 0 m²/s² 0 0 -1.19 80
10:00 579 J/kg -2.6 K 0 % 0 % 0 % 0 m²/s² 0 0 -1.07 80
11:00 811 J/kg -3.4 K 0 % 0 % 0 % 0 m²/s² 0 0 -1.69 3
12:00 958 J/kg -3.9 K 0 % 0 % 0 % 0 m²/s² 0 0 -2.31 3
13:00 1035 J/kg -3.9 K 0 % 0 % 0 % 0 m²/s² 0 0 -2.43 3
14:00 901 J/kg -3.5 K 0 % 0 % 0 % 0 m²/s² 0 0 -1.61 3
15:00 870 J/kg -3.6 K 0 % 0 % 0 % 0 m²/s² 0 0 -2.34 3
16:00 966 J/kg -3.9 K 0 % 0 % 0 % 0 m²/s² 0 0 -3.78 80
17:00 861 J/kg -3.3 K 0 % 0 % 0 % 0 m²/s² 0 0 -3.12 3
18:00 933 J/kg -3.7 K 0 % 0 % 0 % 0 m²/s² 0 0 -2.98 80
19:00 863 J/kg -2.9 K 0 % 0 % 0 % 0 m²/s² 0 0 -1.37 80
20:00 958 J/kg -3.8 K 0 % 0 % 0 % 0 m²/s² 0 0 -2.54 80
21:00 694 J/kg -2.6 K 0 % 0 % 0 % 0 m²/s² 0 0 -1.07 3
22:00 678 J/kg -3.1 K 0 % 0 % 0 % 0 m²/s² 0 0 -1.66 3
23:00 614 J/kg -2.8 K 0 % 0 % 0 % 0 m²/s² 0 0 -1.66 45
 07:07     19:14    Daglengte: 12:07 Dinsdag 22 Sep
00:00 344 J/kg -2.4 K 0 % 0 % 0 % 0 m²/s² 0 0 -1.56 45
01:00 183 J/kg -2.1 K 0 % 0 % 0 % 0 m²/s² 0 0 -0.84 45
02:00 85 J/kg -1.6 K 0 % 0 % 0 % 0 m²/s² 0 0 -0.07 45
03:00 91 J/kg -1.6 K 0 % 0 % 0 % 0 m²/s² 0 0 0.05 45
04:00 85 J/kg -0.9 K 0 % 0 % 0 % 0 m²/s² 0 0 0.63 45
05:00 29 J/kg -1.2 K 0 % 0 % 0 % 0 m²/s² 0 0 0.39 45
06:00 0 J/kg -1.8 K 0 % 0 % 0 % 0 m²/s² 0 0 -0.36 45
07:00 45 J/kg -2.3 K 0 % 0 % 0 % 0 m²/s² 0 0 -1.55 45
08:00 40 J/kg -2.3 K 0 % 0 % 0 % 0 m²/s² 0 0 -1.67 45
09:00 144 J/kg -2.2 K 0 % 0 % 0 % 0 m²/s² 0 0 -1.45 45
10:00 447 J/kg -2.3 K 0 % 0 % 0 % 0 m²/s² 0 0 -1.4 45
11:00 608 J/kg -2.4 K 0 % 0 % 0 % 0 m²/s² 0 0 -0.87 45
12:00 751 J/kg -3.4 K 0 % 0 % 0 % 0 m²/s² 0 0 -1.63 3
13:00 848 J/kg -3.5 K 0 % 0 % 0 % 0 m²/s² 0 0 -2.45 3
14:00 867 J/kg -3.4 K 0 % 0 % 0 % 0 m²/s² 0 0 -2.08 3
15:00 1107 J/kg -4.3 K 0 % 0 % 0 % 0 m²/s² 0 0 -3.4 3
16:00 1108 J/kg -4.2 K 0 % 0 % 0 % 0 m²/s² 0 0 -3.15 3
17:00 441 J/kg -2.8 K 0 % 0 % 0 % 0 m²/s² 0 0 -1.9 3
18:00 174 J/kg -0.8 K 0 % 0 % 0 % 0 m²/s² 0 0 0.4 3
19:00 124 J/kg -0.5 K 0 % 0 % 0 % 0 m²/s² 0 0 -0.02 3
20:00 53 J/kg 0.3 K 0 % 0 % 0 % 0 m²/s² 0 0 0.63 3
21:00 15 J/kg 0.2 K 0 % 0 % 0 % 0 m²/s² 0 0 1.34 3
22:00 20 J/kg -0.1 K 0 % 0 % 0 % 0 m²/s² 0 0 1.37 3
23:00 19 J/kg -0.1 K 0 % 0 % 0 % 0 m²/s² 0 0 0.83 3
 07:08     19:12    Daglengte: 12:04 Woensdag 23 Sep
00:00 75 J/kg -1.2 K 0 % 0 % 0 % 0 m²/s² 0 0 -1.08 3
01:00 28 J/kg -1.8 K 0 % 0 % 0 % 0 m²/s² 0 0 -1.5 3
02:00 33 J/kg -2.5 K 0 % 0 % 0 % 0 m²/s² 0 0 -1.66 3
03:00 121 J/kg -2.1 K 0 % 0 % 0 % 0 m²/s² 0 0 -1.11 3
04:00 51 J/kg -1.2 K 0 % 0 % 0 % 0 m²/s² 0 0 -0.45 3
05:00 36 J/kg -1.1 K 0 % 0 % 0 % 0 m²/s² 0 0 -0.59 45
06:00 140 J/kg -2.9 K 0 % 0 % 0 % 0 m²/s² 0 0 -2.81 45
07:00 0 J/kg -1.7 K 0 % 0 % 0 % 0 m²/s² 0 0 -1.49 45
08:00 8 J/kg -2.8 K 0 % 0 % 0 % 0 m²/s² 0 0 -2.5 45
09:00 106 J/kg -2.0 K 0 % 0 % 0 % 0 m²/s² 0 0 -1.43
10:00 389 J/kg -1.7 K 0 % 0 % 0 % 0 m²/s² 0 0 -0.89
Temp Baro Wind Neerslag
  EWN Forecast EWN WRFDA DWD ICON FMI HIRLAM MET Norway GFS
 07:04     19:17    Daglengte: 12:13 Vandaag
11:00 20.9° 1016.1 hPa 1.4 m/s 0.0 mm 20.3° 1015.8 hPa 2.8 m/s 0.0 mm 20.9° 1015.9 hPa 1.1 m/s -2.0 mm 21.1° 1016.0 hPa 2.8 m/s 0.0 mm 22.0° 1016.2 hPa 1.1 m/s 23.1° 1016.3 hPa 2.1 m/s
14:00 24.9° 1015.0 hPa 2.3 m/s 0.0 mm 24.8° 1014.4 hPa 2.7 m/s 0.0 mm 23.8° 1015.0 hPa 2.1 m/s 0.2 mm 25.8° 1015.1 hPa 2.7 m/s 0.0 mm 27.0° 1014.7 hPa 1.5 m/s 26.4° 1015.1 hPa 2.0 m/s
17:00 24.9° 1013.7 hPa 2.3 m/s 0.0 mm 26.8° 1013.3 hPa 1.8 m/s 0.0 mm 25.1° 1013.2 hPa 1.2 m/s 0.0 mm 25.1° 1013.9 hPa 3.2 m/s 0.0 mm 26.0° 1013.7 hPa 2.4 m/s 26.5° 1014.0 hPa 0.4 m/s
20:00 21.9° 1014.1 hPa 1.3 m/s 0.0 mm 24.1° 1013.1 hPa 2.4 m/s 0.1 mm 20.6° 1014.2 hPa 1.0 m/s 0.5 mm 22.9° 1014.0 hPa 1.2 m/s 0.0 mm 22.0° 1014.2 hPa 1.5 m/s 22.1° 1014.3 hPa 0.7 m/s
23:00 19.9° 1015.0 hPa 1.5 m/s 0.7 mm 20.6° 1014.6 hPa 1.8 m/s 0.8 mm 18.8° 1015.1 hPa 0.7 m/s 3.4 mm 20.8° 1014.3 hPa 3.2 m/s 0.0 mm 20.0° 1015.1 hPa 1.4 m/s 20.0° 1015.4 hPa 1.7 m/s
 07:05     19:16    Daglengte: 12:11 Morgen
02:00 18.8° 1015.1 hPa 1.1 m/s 1.4 mm 18.8° 1014.2 hPa 0.7 m/s 1.4 mm 18.3° 1015.1 hPa 0.4 m/s 1.7 mm 19.0° 1014.1 hPa 1.0 m/s 0.0 mm 18.9° 1015.4 hPa 2.4 m/s 18.8° 1015.1 hPa 0.6 m/s
05:00 18.1° 1014.7 hPa 0.6 m/s 1.9 mm 17.8° 1014.5 hPa 0.4 m/s 1.4 mm 18.0° 1014.6 hPa 0.4 m/s 3.1 mm 18.7° 1013.7 hPa 0.1 m/s 0.0 mm 17.8° 1015.4 hPa 1.3 m/s 18.0° 1014.8 hPa 0.5 m/s
08:00 18.6° 1015.1 hPa 0.8 m/s 1.1 mm 18.0° 1014.9 hPa 0.6 m/s 1.4 mm 18.2° 1014.9 hPa 0.6 m/s 1.9 mm 19.2° 1014.2 hPa 0.1 m/s 0.0 mm 18.5° 1015.9 hPa 1.3 m/s 18.5° 1015.1 hPa 0.2 m/s
11:00 20.7° 1016.0 hPa 1.3 m/s 0.7 mm 22.0° 1014.6 hPa 1.4 m/s 1.4 mm 18.8° 1016.0 hPa 1.4 m/s 0.7 mm 20.6° 1014.9 hPa 1.2 m/s 0.0 mm 21.8° 1016.4 hPa 1.4 m/s 23.4° 1015.7 hPa 1.2 m/s
14:00 23.4° 1015.4 hPa 1.9 m/s 0.5 mm 25.9° 1013.7 hPa 2.6 m/s 1.4 mm 21.1° 1015.6 hPa 1.0 m/s 0.0 mm 24.6° 1014.2 hPa 2.0 m/s 0.0 mm 23.6° 1015.8 hPa 2.3 m/s 26.8° 1015.1 hPa 1.8 m/s
17:00 22.5° 1014.5 hPa 1.4 m/s 0.5 mm 22.5° 1012.8 hPa 4.0 m/s 4.3 mm 20.8° 1014.9 hPa 1.3 m/s 0.4 mm 22.1° 1013.3 hPa 2.8 m/s 0.0 mm 23.6° 1014.7 hPa 1.0 m/s 26.9° 1014.2 hPa 1.6 m/s
20:00 20.1° 1015.1 hPa 1.2 m/s 6.5 mm 21.1° 1013.8 hPa 1.2 m/s 23.1 mm 19.3° 1015.6 hPa 0.4 m/s 1.0 mm 20.6° 1013.3 hPa 1.2 m/s 0.0 mm 19.6° 1015.7 hPa 1.7 m/s 23.0° 1014.2 hPa 0.6 m/s
23:00 18.8° 1015.6 hPa 0.8 m/s 0.0 mm 19.4° 1013.8 hPa 1.6 m/s 24.3 mm 18.1° 1016.0 hPa 0.7 m/s 0.2 mm 19.9° 1013.9 hPa 0.9 m/s 0.0 mm 18.6° 1016.4 hPa 0.7 m/s 20.6° 1015.4 hPa 0.6 m/s
 07:07     19:14    Daglengte: 12:07 Dinsdag 22 Sep
02:00 18.2° 1015.0 hPa 0.9 m/s 0.0 mm 18.8° 1013.2 hPa 1.1 m/s 24.6 mm 17.6° 1015.6 hPa 0.7 m/s 0.0 mm 20.4° 1013.0 hPa 1.7 m/s 0.0 mm 17.8° 1015.8 hPa 0.5 m/s 19.5° 1014.7 hPa 0.6 m/s
05:00 17.7° 1014.6 hPa 0.9 m/s 0.0 mm 17.7° 1012.2 hPa 2.1 m/s 25.0 mm 16.8° 1015.0 hPa 0.7 m/s 0.0 mm 17.8° 1014.9 hPa 0.8 m/s 18.3° 1014.1 hPa 1.1 m/s
08:00 17.9° 1014.9 hPa 0.6 m/s 0.0 mm 18.5° 1013.1 hPa 1.1 m/s 25.1 mm 16.6° 1015.0 hPa 0.7 m/s 0.0 mm 18.1° 1015.3 hPa 0.6 m/s 18.2° 1014.4 hPa 1.6 m/s
11:00 20.2° 1015.1 hPa 1.3 m/s 0.0 mm 22.3° 1012.5 hPa 0.6 m/s 25.2 mm 18.6° 1015.4 hPa 0.6 m/s 0.0 mm 20.1° 1015.4 hPa 1.9 m/s 22.3° 1014.4 hPa 1.7 m/s
14:00 22.9° 1013.6 hPa 1.8 m/s 4.5 mm 25.5° 1010.6 hPa 1.3 m/s 25.2 mm 21.0° 1014.3 hPa 1.5 m/s 0.0 mm 23.1° 1013.8 hPa 1.8 m/s 24.7° 1013.3 hPa 1.8 m/s
17:00 21.9° 1012.2 hPa 1.6 m/s 4.7 mm 23.7° 1009.8 hPa 4.0 m/s 32.0 mm 21.9° 1012.7 hPa 0.9 m/s 0.0 mm 21.8° 1012.3 hPa 1.4 m/s 25.4° 1011.4 hPa 0.2 m/s
20:00 19.8° 1012.1 hPa 1.4 m/s 0.0 mm 21.8° 1009.4 hPa 1.9 m/s 34.4 mm 20.1° 1012.6 hPa 0.7 m/s 0.1 mm 19.3° 1012.2 hPa 1.5 m/s 22.0° 1011.4 hPa 2.1 m/s
23:00 18.7° 1011.9 hPa 1.0 m/s 4.2 mm 20.5° 1009.5 hPa 1.8 m/s 34.5 mm 18.6° 1012.5 hPa 0.6 m/s 0.0 mm 18.0° 1012.0 hPa 1.1 m/s 20.9° 1011.5 hPa 1.9 m/s
 07:08     19:12    Daglengte: 12:04 Woensdag 23 Sep
02:00 17.8° 1011.6 hPa 0.7 m/s 4.0 mm 18.6° 1009.6 hPa 1.9 m/s 36.9 mm 17.8° 1011.7 hPa 0.2 m/s 0.0 mm 16.7° 1011.7 hPa 0.6 m/s 19.0° 1011.1 hPa 1.4 m/s
05:00 17.2° 1010.7 hPa 0.9 m/s 0.0 mm 18.8° 1007.1 hPa 3.0 m/s 42.2 mm 17.4° 1010.8 hPa 0.2 m/s 0.0 mm 16.8° 1011.3 hPa 0.8 m/s 18.4° 1010.5 hPa 1.2 m/s
08:00 17.0° 1010.5 hPa 1.1 m/s 0.0 mm 17.3° 1007.8 hPa 3.0 m/s 51.9 mm 17.1° 1010.7 hPa 0.7 m/s 0.0 mm 16.9° 1010.9 hPa 0.9 m/s 18.9° 1010.6 hPa 1.2 m/s
11:00 19.7° 1010.2 hPa 1.4 m/s 62.3 mm 18.8° 1008.8 hPa 2.6 m/s 62.3 mm 19.9° 1010.4 hPa 1.2 m/s 22.8° 1010.3 hPa 1.0 m/s
14:00 22.6° 1009.6 hPa 1.7 m/s 71.6 mm 20.5° 1007.8 hPa 3.2 m/s 71.6 mm 22.9° 1009.9 hPa 1.5 m/s 26.0° 1009.6 hPa 1.8 m/s
17:00 21.1° 1009.1 hPa 1.7 m/s 18.9 mm 20.8° 1009.1 hPa 1.5 m/s 25.3° 1009.0 hPa 4.1 m/s 18.9 mm
20:00 19.8° 1008.8 hPa 1.6 m/s 18.9 mm 19.7° 1008.7 hPa 1.5 m/s 20.6° 1009.7 hPa 3.2 m/s 18.9 mm
23:00 18.1° 1008.8 hPa 1.2 m/s 18.9 mm 18.0° 1008.6 hPa 1.1 m/s 18.8° 1011.4 hPa 2.8 m/s 18.9 mm
 07:09     19:10    Daglengte: 12:01 Donderdag 24 Sep
02:00 16.5° 1008.7 hPa 0.7 m/s 18.9 mm 16.3° 1008.5 hPa 0.6 m/s 18.6° 1011.4 hPa 1.7 m/s 18.9 mm
05:00 16.6° 1008.5 hPa 0.5 m/s 18.9 mm 16.5° 1008.3 hPa 0.5 m/s 18.2° 1011.0 hPa 1.0 m/s 18.9 mm
08:00 16.8° 1008.4 hPa 0.4 m/s 18.9 mm 16.7° 1008.1 hPa 0.4 m/s 18.4° 1012.1 hPa 0.7 m/s 18.9 mm
11:00 20.7° 1008.1 hPa 1.1 m/s 18.9 mm 20.4° 1007.7 hPa 1.0 m/s 23.2° 1012.4 hPa 1.1 m/s 18.9 mm
14:00 24.4° 1007.6 hPa 1.7 m/s 19.0 mm 24.2° 1007.3 hPa 1.7 m/s 26.8° 1011.3 hPa 2.2 m/s 19.0 mm
17:00 22.8° 1006.5 hPa 1.8 m/s 19.0 mm 22.5° 1006.2 hPa 1.6 m/s 25.8° 1009.6 hPa 4.3 m/s 19.0 mm
20:00 20.9° 1005.4 hPa 1.7 m/s 19.0 mm 20.8° 1005.1 hPa 1.5 m/s 22.4° 1008.6 hPa 3.6 m/s 19.0 mm
23:00 20.0° 1004.7 hPa 2.0 m/s 19.1 mm 19.9° 1004.4 hPa 1.8 m/s 21.6° 1008.1 hPa 4.6 m/s 19.1 mm
 07:10     19:08    Daglengte: 11:58 Vrijdag 25 Sep
02:00 19.1° 1003.7 hPa 2.2 m/s 19.4 mm 18.9° 1003.6 hPa 2.1 m/s 21.1° 1005.1 hPa 3.1 m/s 19.4 mm
05:00 18.0° 1002.3 hPa 2.2 m/s 19.4 mm 17.8° 1002.2 hPa 2.2 m/s 19.9° 1002.4 hPa 1.6 m/s 19.4 mm
08:00 16.9° 1000.9 hPa 2.2 m/s 19.4 mm 16.7° 1000.9 hPa 2.3 m/s 19.5° 1000.9 hPa 1.5 m/s 19.4 mm
11:00 20.7° 999.6 hPa 3.7 m/s 19.4 mm 20.4° 999.7 hPa 3.6 m/s 23.8° 998.9 hPa 4.2 m/s 19.4 mm
14:00 24.2° 998.4 hPa 5.5 m/s 19.4 mm 24.1° 998.5 hPa 5.0 m/s 24.9° 996.8 hPa 11.2 m/s 19.4 mm
17:00 20.5° 998.1 hPa 5.2 m/s 19.4 mm 20.2° 998.2 hPa 4.8 m/s 23.3° 996.4 hPa 10.0 m/s 19.4 mm
20:00 16.4° 998.0 hPa 4.7 m/s 19.4 mm 16.4° 998.0 hPa 4.5 m/s 15.8° 998.1 hPa 7.4 m/s 19.4 mm
23:00 13.8° 998.0 hPa 5.2 m/s 19.4 mm 13.8° 997.7 hPa 5.2 m/s 14.0° 1000.9 hPa 6.1 m/s 19.4 mm
 07:11     19:06    Daglengte: 11:55 Zaterdag 26 Sep
02:00 11.4° 997.9 hPa 5.9 m/s 19.4 mm 11.1° 997.4 hPa 5.8 m/s 14.2° 1003.4 hPa 7.1 m/s 19.4 mm
05:00 11.7° 998.3 hPa 4.4 m/s 19.4 mm 11.6° 997.8 hPa 4.4 m/s 12.9° 1004.3 hPa 4.7 m/s 19.4 mm
08:00 12.0° 998.7 hPa 3.0 m/s 19.4 mm 12.0° 998.1 hPa 3.0 m/s 12.1° 1005.3 hPa 2.7 m/s 19.4 mm
11:00 14.5° 999.6 hPa 2.9 m/s 19.4 mm 14.2° 999.1 hPa 2.8 m/s 18.1° 1004.7 hPa 4.5 m/s 19.4 mm
14:00 16.7° 1000.4 hPa 2.8 m/s 19.4 mm 16.3° 1000.1 hPa 2.6 m/s 20.8° 1003.9 hPa 4.9 m/s 19.4 mm
17:00 16.1° 1001.7 hPa 2.8 m/s 19.4 mm 15.7° 1001.5 hPa 2.7 m/s 20.4° 1003.6 hPa 4.2 m/s 19.4 mm
20:00 15.1° 1003.1 hPa 2.6 m/s 19.4 mm 15.1° 1002.9 hPa 2.7 m/s 15.2° 1004.8 hPa 1.9 m/s 19.4 mm
23:00 13.7° 1004.6 hPa 3.1 m/s 19.4 mm 13.8° 1004.5 hPa 3.4 m/s 13.1° 1005.7 hPa 0.4 m/s 19.4 mm
 07:13     19:04    Daglengte: 11:51 Zondag 27 Sep
02:00 12.3° 1006.1 hPa 3.7 m/s 19.4 mm 12.4° 1006.2 hPa 4.0 m/s 11.6° 1005.1 hPa 0.6 m/s 19.4 mm
05:00 11.9° 1007.2 hPa 3.4 m/s 19.4 mm 12.0° 1007.5 hPa 3.6 m/s 10.9° 1004.1 hPa 0.7 m/s 19.4 mm
08:00 11.6° 1008.4 hPa 3.1 m/s 19.4 mm 11.6° 1008.8 hPa 3.3 m/s 11.4° 1004.0 hPa 0.7 m/s 19.4 mm
14:00 20.0° 1009.9 hPa 2.8 m/s 19.4 mm 20.1° 1010.5 hPa 2.9 m/s 19.0° 1003.2 hPa 1.4 m/s 19.4 mm
20:00 16.4° 1011.6 hPa 0.8 m/s 19.4 mm 16.6° 1012.3 hPa 0.7 m/s 14.6° 1004.1 hPa 1.8 m/s 19.4 mm
 07:14     19:02    Daglengte: 11:48 Maandag 28 Sep
02:00 10.8° 1014.3 hPa 1.8 m/s 19.5 mm 10.7° 1015.0 hPa 1.9 m/s 11.5° 1007.1 hPa 1.2 m/s 19.5 mm
08:00 8.7° 1015.3 hPa 1.3 m/s 19.5 mm 8.5° 1016.0 hPa 1.4 m/s 10.7° 1008.0 hPa 0.2 m/s 19.5 mm
14:00 21.7° 1015.8 hPa 1.6 m/s 19.5 mm 21.9° 1016.6 hPa 1.6 m/s 19.0° 1007.5 hPa 1.5 m/s 19.5 mm
20:00 16.6° 1016.2 hPa 1.1 m/s 19.5 mm 16.7° 1016.9 hPa 1.0 m/s 15.0° 1008.9 hPa 1.9 m/s 19.5 mm
 07:15     19:00    Daglengte: 11:45 Dinsdag 29 Sep
02:00 12.6° 1017.3 hPa 2.5 m/s 19.5 mm 12.6° 1017.8 hPa 2.6 m/s 12.7° 1011.7 hPa 1.7 m/s 19.5 mm
08:00 11.1° 1017.9 hPa 1.3 m/s 19.5 mm 11.0° 1018.3 hPa 1.3 m/s 11.7° 1013.3 hPa 1.4 m/s 19.5 mm
14:00 20.5° 1014.2 hPa 2.0 m/s 19.5 mm 20.5° 1014.2 hPa 2.0 m/s 19.5 mm
20:00 16.2° 1015.3 hPa 1.1 m/s 19.5 mm 16.2° 1015.3 hPa 1.1 m/s 19.5 mm
 07:16     18:59    Daglengte: 11:43 Woensdag 30 Sep
02:00 13.1° 1016.9 hPa 0.9 m/s 19.5 mm 13.1° 1016.9 hPa 0.9 m/s 19.5 mm
08:00 11.5° 1016.1 hPa 0.2 m/s 0.3 mm
14:00 21.0° 1015.6 hPa 0.3 m/s 0.4 mm
20:00 15.0° 1015.0 hPa 0.8 m/s 0.3 mm
 07:17     18:57    Daglengte: 11:40 Donderdag 01 Okt
02:00 12.4° 1015.2 hPa 0.7 m/s 0.3 mm
08:00 12.0° 1014.9 hPa 0.6 m/s 0.9 mm
14:00 21.3° 1014.4 hPa 0.7 m/s 0.5 mm
20:00 15.2° 1014.0 hPa 1.0 m/s 0.6 mm
 07:19     18:55    Daglengte: 11:36 Vrijdag 02 Okt
02:00 12.8° 1014.7 hPa 0.8 m/s 0.9 mm
08:00 12.4° 1014.9 hPa 1.0 m/s 1.3 mm
14:00 21.6° 1015.1 hPa 1.3 m/s 1.1 mm
20:00 16.3° 1015.3 hPa 1.3 m/s 1.6 mm
 07:20     18:53    Daglengte: 11:33 Zaterdag 03 Okt
02:00 14.0° 1016.1 hPa 0.5 m/s 0.4 mm
08:00 13.5° 1016.4 hPa 0.8 m/s 0.5 mm
14:00 22.4° 1016.6 hPa 1.3 m/s 2.2 mm
20:00 16.9° 1016.3 hPa 0.9 m/s 1.5 mm
 07:21     18:51    Daglengte: 11:30 Zondag 04 Okt
02:00 14.4° 1016.8 hPa 0.5 m/s 0.5 mm
08:00 13.9° 1016.1 hPa 0.8 m/s 1.0 mm
14:00 23.0° 1015.4 hPa 1.2 m/s 1.8 mm
20:00 17.6° 1014.6 hPa 1.2 m/s 2.7 mm
 07:22     18:49    Daglengte: 11:27 Maandag 05 Okt
02:00 15.3° 1014.9 hPa 0.7 m/s 3.7 mm
08:00 14.5° 1014.2 hPa 0.6 m/s 3.5 mm
FMI Hirlam - 7.5 km EWN WRFDA - 12 km DWD ICON - 7 km GFS - 25 km Basiskaart






























































Updatetijd (Europe/Brussels) Resolutie Lengte Stap
FMI Hirlam 07:15, 13:15, 19:15, 01:15 7.5 km 49h 1h
EWN WRFDA 10:15, 16:15, 22:15, 04:15 12 km 73h 1h
DWD ICON 06:15, 12:15, 18:15, 00:15 7 km 75h 1h
GFS 08:15, 14:15, 20:15, 02:15 25 km 237h 3h
30+ mm
25-30 mm
20-25 mm
15-20 mm
10-15 mm
6-10 mm
4-6 mm
2-4 mm
1-2 mm
0.5-1 mm
0.2-0.5 mm
0.1-0.2 mm
30+ mm
25-30 mm
20-25 mm
15-20 mm
10-15 mm
6-10 mm
4-6 mm
2-4 mm
1-2 mm
0.5-1 mm
0.2-0.5 mm
0.1-0.2 mm
Sneeuwval
Natte sneeuw
Hagel
Vorst
30+ mm
25-30 mm
20-25 mm
15-20 mm
10-15 mm
6-10 mm
4-6 mm
2-4 mm
1-2 mm
0.5-1 mm
0.2-0.5 mm
0.1-0.2 mm
Sneeuwval
Natte sneeuw
Hagel
Vorst
Onweer
50 mm
40 mm
30 mm
26 mm
22 mm
18 mm
14 mm
10 mm
9 mm
8 mm
7 mm
6 mm
5 mm
4.5 mm
4 mm
3.5 mm
3 mm
2.5 mm
2 mm
1.5 mm
1 mm
0.8 mm
0.6 mm
0.4 mm
0.2 mm
0.05 mm
35°
30°
25°
20°
15°
10°
-5°
-10°
-15°
-20°
-25°
-30°
-35°
33> m/s
29 m/s
25 m/s
21 m/s
17 m/s
14 m/s
11 m/s
8 m/s
5 m/s
3 m/s
0 m/s
2600 J/kg
2400 J/kg
2200 J/kg
2000 J/kg
1800 J/kg
1600 J/kg
1400 J/kg
1200 J/kg
1000 J/kg
800 J/kg
600 J/kg
400 J/kg
200 J/kg
70 dBZ
65 dBZ
60 dBZ
55 dBZ
50 dBZ
45 dBZ
40 dBZ
35 dBZ
30 dBZ
25 dBZ
20 dBZ
15 dBZ
10 dBZ
5 dBZ
-1 K
-2 K
-3 K
-4 K
-5 K
-6 K
-7 K
-8 K
-9 K
950 m²/s²
900 m²/s²
850 m²/s²
800 m²/s²
750 m²/s²
700 m²/s²
650 m²/s²
600 m²/s²
550 m²/s²
500 m²/s²
450 m²/s²
400 m²/s²
350 m²/s²
300 m²/s²
250 m²/s²
200 m²/s²
150 m²/s²
100 m²/s²
46 m/s
44 m/s
42 m/s
40 m/s
38 m/s
36 m/s
34 m/s
32 m/s
30 m/s
28 m/s
26 m/s
24 m/s
22 m/s
20 m/s
16 m/s
12 m/s
8 m/s
4 m/s
30 m/s
28 m/s
26 m/s
24 m/s
22 m/s
20 m/s
18 m/s
16 m/s
14 m/s
12 m/s
10 m/s
8 m/s
6 m/s
4 m/s
2 m/s
3.0
2.8
2.6
2.4
2.2
2.0
1.8
1.6
1.4
1.2
1.0
0.8
0.6
0.4
0.2
15
14
13
12
11
10
9
8
7
6
5
4
3
2
1
90%
80%
70%
60%
50%
40%
30%
20%
10%
42
40
38
36
34
32
30
28
26
24
22
20
18
16
14
12
90+ cm
80-90 cm
70-80 cm
60-70 cm
50-60 cm
40-50 cm
30-40 cm
20-30 cm
10-20 cm
1-10 cm
Sneeuwval
Natte sneeuw
Regen
>120 mm
115 mm
110 mm
105 mm
100 mm
95 mm
90 mm
85 mm
80 mm
75 mm
70 mm
65 mm
60 mm
55 mm
50 mm
45 mm
45 mm
40 mm
35 mm
30 mm
25 mm
20 mm
15 mm
10 mm
5 mm
0.1 mm
960 hPa
880 hPa
800 hPa
720 hPa
640 hPa
560 hPa
584 gpdm
568 gpdm